Date,TemperatureHighF,TemperatureAvgF,TemperatureLowF,DewpointHighF,DewpointAvgF,DewpointLowF,HumidityHigh,HumidityAvg,HumidityLow,PressureMaxIn,PressureMinIn,WindSpeedMaxMPH,WindSpeedAvgMPH,GustSpeedMaxMPH,PrecipitationSumIn
2012-1-1,77,63,51,60,56,50,97,80,48,30.30,30.17,3,1,10,0.00
2012-1-2,64,57,45,61,48,38,98,74,42,30.25,30.12,5,2,16,0.00
2012-1-3,55,43,37,40,26,20,84,51,37,30.44,30.21,17,2,27,0.00
2012-1-4,57,42,32,32,21,7,81,47,15,30.48,30.33,8,1,8,0.00
2012-1-5,67,50,32,52,43,30,96,78,54,30.36,30.21,12,1,12,0.00
2012-1-6,72,56,43,57,50,42,98,83,49,30.26,30.14,8,0,8,0.00
2012-1-7,74,60,50,59,53,46,98,81,38,30.23,30.13,7,0,7,0.00
2012-1-8,77,62,49,57,53,48,97,75,42,30.27,30.16,7,1,7,0.00
2012-1-9,79,65,53,61,56,52,97,76,46,30.25,30.10,11,1,11,0.00
2012-1-10,80,67,56,62,57,54,97,75,43,30.13,29.95,13,2,13,0.00
2012-1-11,71,65,59,67,61,57,96,87,75,29.99,29.81,18,3,18,0.22
2012-1-12,76,66,58,63,60,57,98,81,54,29.98,29.86,16,2,16,0.00
2012-1-13,66,53,49,62,42,36,88,66,49,30.27,29.98,11,2,15,0.00
2012-1-14,56,48,40,45,33,25,92,60,31,30.41,30.25,8,1,12,0.00
2012-1-15,67,51,36,50,40,34,94,69,32,30.48,30.37,12,1,12,0.00
2012-1-16,72,57,43,52,46,38,86,68,47,30.48,30.33,17,2,17,0.00
2012-1-17,77,61,48,58,53,47,96,77,48,30.36,30.17,16,2,16,0.00
2012-1-18,72,62,53,62,58,52,97,90,63,30.17,30.01,17,2,17,0.74
2012-1-19,70,58,48,58,44,32,97,66,25,30.22,30.06,10,1,10,0.01
2012-1-20,78,61,46,55,48,40,94,68,35,30.21,30.11,13,2,13,0.00
2012-1-21,77,64,53,59,56,52,95,76,45,30.17,30.05,12,2,12,0.00
2012-1-22,79,64,53,65,56,48,98,77,40,30.16,30.08,8,1,8,0.00
2012-1-23,80,67,56,65,61,54,96,82,55,30.18,30.06,9,1,9,0.00
2012-1-24,81,68,59,66,61,58,98,80,50,30.20,30.10,10,1,10,0.00
2012-1-25,82,71,62,67,62,56,98,76,42,30.19,30.08,16,2,16,0.00
2012-1-26,83,70,60,68,63,59,98,79,52,30.11,29.97,19,3,19,0.00
2012-1-27,71,66,56,68,62,54,96,88,74,30.10,29.92,18,3,18,0.45
2012-1-28,70,60,52,57,54,51,98,81,54,30.22,30.09,11,1,11,0.01
2012-1-29,72,60,50,54,50,44,96,71,38,30.34,30.20,11,1,11,0.00
2012-1-30,73,60,50,51,46,42,88,63,34,30.40,30.28,17,3,17,0.00
2012-1-31,77,64,52,56,52,47,89,67,36,30.38,30.24,17,2,17,0.00
2012-2-1,80,66,54,61,57,53,95,75,45,30.29,30.14,11,1,11,0.00
2012-2-2,80,68,57,64,58,53,94,74,41,30.20,30.09,9,1,9,0.00
2012-2-3,76,68,62,64,61,58,94,78,60,30.25,30.16,16,3,16,0.00
2012-2-4,83,70,62,65,61,58,93,73,47,30.20,30.06,15,2,15,0.00
2012-2-5,81,71,64,67,64,61,96,81,54,30.10,29.99,10,1,10,0.00
2012-2-6,83,71,65,69,66,63,96,85,54,30.10,29.98,17,1,17,0.14
2012-2-7,68,66,63,66,64,61,97,94,88,30.10,30.02,8,1,10,0.00
2012-2-8,76,65,57,62,56,48,96,75,37,30.15,30.03,10,1,11,0.00
2012-2-9,72,63,56,57,54,48,91,74,55,30.20,30.08,12,2,12,0.00
2012-2-10,79,66,57,66,60,54,96,83,59,30.14,29.92,10,2,10,0.20
2012-2-11,63,62,60,62,60,57,95,94,92,29.99,29.94,13,3,13,0.02
2012-2-12,51,44,34,34,23,14,69,47,23,30.40,30.20,3,2,14,0.00
2012-2-13,66,57,34,43,39,27,83,52,34,30.33,30.13,9,1,10,0.00
2012-2-14,78,63,47,60,53,40,92,72,51,30.15,30.06,16,3,16,0.00
2012-2-15,82,70,59,62,60,57,96,71,49,30.22,30.10,12,2,12,0.00
2012-2-16,65,64,64,58,58,58,81,80,79,30.18,30.18,1,0,2,0.00
2012-2-17,71,68,66,68,66,63,98,94,91,30.09,30.01,2,0,8,0.68
2012-2-18,76,69,65,68,66,65,99,90,74,30.04,29.89,4,2,12,0.01
2012-2-19,79,70,64,72,65,56,96,85,73,29.96,29.84,7,4,22,0.01
2012-2-20,71,62,53,56,50,45,87,68,42,30.23,29.97,14,2,14,0.00
2012-2-21,77,62,49,60,54,47,95,76,46,30.26,30.11,11,2,11,0.00
2012-2-22,76,67,59,67,63,57,96,86,72,30.13,29.93,15,2,15,0.09
2012-2-23,80,72,69,71,69,67,97,89,71,29.99,29.89,16,4,17,0.00
2012-2-24,84,75,67,71,68,66,96,82,58,30.02,29.93,22,4,22,0.00
2012-2-25,73,65,58,70,45,33,92,51,27,30.28,30.01,13,3,13,0.00
2012-2-26,70,62,53,63,51,37,87,69,46,30.33,30.23,14,3,14,0.00
2012-2-27,85,72,63,70,65,61,96,82,52,30.31,30.19,12,1,12,0.02
2012-2-28,80,71,65,70,66,63,98,86,62,30.29,30.18,11,2,11,0.00
2012-2-29,85,72,62,70,65,61,98,81,53,30.24,30.10,12,2,12,0.00
2012-3-1,84,72,65,69,66,64,97,83,57,30.13,30.01,12,2,12,0.00
2012-3-2,84,73,65,70,67,62,98,82,50,30.07,29.95,17,3,17,0.00
2012-3-3,86,76,69,72,69,66,96,80,53,29.95,29.80,26,6,26,0.00
2012-3-4,77,62,48,72,48,30,92,61,30,30.25,29.68,30,6,32,0.20
2012-3-5,74,59,44,51,43,32,93,60,23,30.39,30.24,11,1,11,0.00
2012-3-6,78,63,50,56,52,48,94,71,42,30.42,30.33,25,3,25,0.00
2012-3-7,82,68,57,61,56,53,90,70,39,30.41,30.27,16,3,16,0.00
2012-3-8,86,72,60,67,62,58,97,74,42,30.30,30.14,13,2,13,0.00
2012-3-9,84,72,65,69,66,64,97,82,52,30.22,30.10,14,2,14,0.00
2012-3-10,80,70,63,67,64,62,97,85,61,30.24,30.11,15,2,15,0.00
2012-3-11,80,70,64,69,65,62,94,84,61,30.30,30.19,17,4,17,0.01
2012-3-12,81,71,62,65,62,59,94,75,50,30.30,30.19,15,2,15,0.01
2012-3-13,84,71,60,65,61,58,95,73,45,30.27,30.15,12,1,12,0.00
2012-3-14,84,72,60,65,61,58,96,72,43,30.26,30.14,13,1,13,0.00
2012-3-15,86,72,61,67,62,56,96,72,40,30.27,30.13,15,2,15,0.00
2012-3-16,85,73,62,66,61,54,97,69,37,30.25,30.12,12,2,12,0.00
2012-3-17,85,72,60,64,59,52,97,67,35,30.25,30.12,13,1,13,0.00
2012-3-18,85,72,58,65,58,50,96,66,31,30.26,30.13,14,2,14,0.00
2012-3-19,85,72,59,63,59,55,97,67,37,30.20,30.06,14,2,14,0.00
2012-3-20,86,73,62,65,61,57,93,67,40,30.13,30.01,14,2,15,0.00
2012-3-21,89,74,64,69,64,56,96,75,35,30.15,30.01,15,2,17,0.84
2012-3-22,86,79,66,70,67,63,97,70,48,30.17,30.04,12,2,12,0.04
2012-3-23,86,74,66,70,66,64,95,78,53,30.14,30.00,10,1,10,0.01
2012-3-24,84,74,65,70,66,61,98,78,54,30.05,29.92,14,3,16,0.00
2012-3-25,81,74,66,70,61,49,91,68,37,29.95,29.85,13,2,15,0.01
2012-3-26,82,70,59,62,56,49,97,66,33,30.04,29.91,13,1,13,0.00
2012-3-27,86,72,58,63,56,45,94,62,27,30.19,30.02,15,2,15,0.00
2012-3-28,85,72,61,65,60,51,95,68,35,30.20,30.05,13,2,13,0.00
2012-3-29,82,73,65,66,63,60,91,73,52,30.09,29.97,10,1,10,0.00
2012-3-30,87,74,63,66,63,57,96,72,37,30.07,29.97,15,2,15,0.00
2012-3-31,83,72,67,70,66,63,94,82,60,30.00,29.88,19,2,19,0.26
2012-4-1,83,73,64,70,66,63,97,80,56,29.97,29.88,11,1,11,0.00
2012-4-2,86,73,64,70,66,61,98,79,47,29.95,29.86,9,1,9,0.00
2012-4-3,90,75,64,70,65,54,98,75,31,30.00,29.90,14,1,14,0.00
2012-4-4,88,76,64,70,66,58,98,75,39,29.98,29.83,15,1,15,0.07
2012-4-5,84,74,67,69,66,64,96,78,52,29.89,29.76,14,2,14,0.04
2012-4-6,81,74,66,71,63,51,93,72,39,29.98,29.74,17,2,17,0.01
2012-4-7,82,70,59,61,55,52,89,63,39,30.17,29.98,16,3,20,0.00
2012-4-8,81,69,56,60,54,49,86,63,34,30.21,30.06,11,2,11,0.00
2012-4-9,83,70,58,64,58,53,92,69,36,30.12,29.99,9,1,10,0.00
2012-4-10,86,72,61,64,60,56,90,68,38,30.09,29.97,11,1,11,0.00
2012-4-11,84,72,62,66,61,51,97,71,36,30.08,29.98,12,1,12,0.00
2012-4-12,83,72,64,63,55,39,89,58,22,30.09,30.00,12,1,12,0.00
2012-4-13,84,72,62,66,61,57,92,71,41,30.15,30.02,14,2,14,0.00
2012-4-14,70,69,69,60,60,60,75,73,72,30.15,30.15,7,3,8,0.00
2012-4-15,85,75,65,62,60,57,83,62,41,30.22,30.15,5,2,19,0.00
2012-4-16,84,74,61,63,59,55,91,62,39,30.22,30.12,4,2,15,0.00
2012-4-17,86,79,60,65,60,54,94,53,36,30.18,30.03,12,2,12,0.00
2012-4-18,86,76,68,66,63,57,81,64,41,30.10,29.97,14,3,14,0.00
2012-4-19,82,76,70,69,68,66,91,77,61,29.99,29.88,5,2,15,0.00
2012-4-20,86,76,68,71,68,65,97,79,54,29.94,29.83,5,2,17,0.00
2012-4-21,80,70,66,68,66,65,95,87,61,29.87,29.63,6,3,20,0.46
2012-4-22,77,68,61,68,62,57,98,83,65,29.77,29.55,5,2,18,0.70
2012-4-23,72,67,59,55,48,44,71,51,41,29.89,29.77,21,4,21,0.00
2012-4-24,70,61,52,51,43,38,73,52,32,30.06,29.92,3,1,13,0.00
2012-4-25,80,70,50,56,54,46,91,58,32,30.14,30.04,8,1,8,0.00
2012-4-26,84,70,57,64,60,55,95,72,47,30.17,30.06,10,1,10,0.00
2012-4-27,89,72,60,66,62,50,97,72,27,30.15,30.03,12,1,12,0.00
2012-4-28,88,76,62,71,66,61,95,73,47,30.11,30.00,11,1,12,0.00
2012-4-29,88,77,67,72,68,59,97,75,42,30.11,30.02,13,2,13,0.00
2012-4-30,88,77,68,71,66,63,96,72,46,30.11,30.01,19,3,20,0.00
2012-5-1,90,78,68,70,66,62,96,69,45,30.10,29.97,17,3,18,0.00
2012-5-2,92,79,69,71,67,65,96,69,43,30.10,29.99,19,3,19,0.00
2012-5-3,92,79,68,71,67,61,96,69,38,30.11,30.01,14,2,14,0.00
2012-5-4,87,81,71,71,68,60,91,66,41,30.11,29.98,8,1,10,0.00
2012-5-5,91,78,67,72,69,65,92,74,45,30.03,29.93,9,1,9,0.00
2012-5-6,90,79,71,72,69,63,97,75,42,30.00,29.90,12,1,12,0.00
2012-5-7,90,77,69,72,68,63,96,76,42,29.95,29.85,14,1,14,0.00
2012-5-8,89,76,66,71,67,63,97,75,47,29.93,29.84,10,1,12,0.00
2012-5-9,89,78,70,76,71,68,96,79,52,29.91,29.79,16,1,16,0.02
2012-5-10,87,77,68,72,65,52,96,70,35,29.95,29.79,11,1,12,0.02
2012-5-11,90,82,63,68,62,59,95,54,40,30.13,29.92,16,3,16,0.00
2012-5-12,90,77,64,69,63,60,88,63,38,30.18,30.07,14,2,14,0.00
2012-5-13,85,76,68,69,65,62,82,68,50,30.15,30.02,11,2,11,0.00
2012-5-14,89,79,74,72,68,63,86,71,44,30.07,29.95,12,2,12,0.00
2012-5-15,92,80,70,71,68,64,92,69,44,30.04,29.92,11,2,11,0.00
2012-5-16,76,73,70,74,70,68,97,91,82,30.03,29.94,13,1,13,1.23
2012-5-17,87,76,69,73,69,64,98,79,50,29.95,29.86,10,1,10,0.08
2012-5-18,89,78,68,71,68,63,97,75,43,29.96,29.87,11,1,11,0.00
2012-5-19,89,78,68,71,66,59,94,71,39,30.02,29.88,15,2,15,0.00
2012-5-20,89,77,67,67,63,50,92,66,30,30.02,29.92,12,2,12,0.00
2012-5-21,88,77,64,66,62,54,93,63,37,30.01,29.92,13,1,13,0.00
2012-5-22,91,78,66,70,65,53,92,67,32,29.98,29.87,11,1,11,0.00
2012-5-23,92,79,68,73,68,57,97,71,35,29.94,29.82,9,1,9,0.00
2012-5-24,94,81,71,74,71,68,94,73,46,29.93,29.82,15,2,15,0.01
2012-5-25,94,82,72,76,70,64,95,69,38,30.06,29.92,9,2,13,0.00
2012-5-26,94,81,70,73,69,62,95,69,36,30.08,29.94,13,1,13,0.00
2012-5-27,92,82,73,74,70,66,86,68,45,30.00,29.83,15,1,15,0.00
2012-5-28,88,82,77,78,74,70,89,76,63,29.92,29.82,17,3,17,0.01
2012-5-29,82,78,71,77,73,69,95,86,77,29.96,29.86,17,3,17,0.56
2012-5-30,91,83,76,77,75,73,92,78,60,29.91,29.83,11,1,11,0.01
2012-5-31,91,82,75,76,73,68,97,76,51,29.94,29.85,13,1,13,0.00
2012-6-1,80,76,72,74,72,70,97,89,77,29.98,29.85,11,2,11,2.30
2012-6-2,89,80,71,74,72,70,97,79,57,30.00,29.88,13,1,13,0.00
2012-6-3,91,80,70,73,69,63,95,71,43,30.06,29.96,11,1,11,0.00
2012-6-4,89,80,71,75,72,68,95,76,58,30.00,29.86,10,1,10,0.00
2012-6-5,87,78,74,77,74,72,97,88,68,29.90,29.81,17,1,17,0.80
2012-6-6,85,76,72,78,72,68,97,88,69,29.93,29.84,20,2,20,0.20
2012-6-7,81,75,73,78,74,71,98,96,90,29.97,29.90,12,1,12,1.07
2012-6-8,82,75,72,77,73,71,98,95,82,30.02,29.89,7,0,7,0.55
2012-6-9,90,79,71,77,73,69,98,83,58,30.04,29.90,12,2,12,0.02
2012-6-10,94,83,74,78,74,70,96,78,53,30.15,29.99,16,2,16,0.00
2012-6-11,94,82,72,77,72,69,92,73,51,30.14,30.04,10,1,10,0.00
2012-6-12,92,82,72,76,72,70,93,75,54,30.10,29.95,11,1,11,0.00
2012-6-13,91,83,76,77,74,70,93,76,58,30.00,29.88,8,1,11,0.00
2012-6-14,93,80,72,77,73,69,95,80,50,30.03,29.89,18,1,18,0.00
2012-6-15,89,81,70,75,72,68,97,73,59,30.06,29.97,14,2,14,0.00
2012-6-16,81,78,72,73,72,70,94,81,75,30.06,30.00,14,6,14,0.00
2012-6-17,81,81,81,72,72,72,75,75,75,30.06,30.06,9,9,14,0.00
2012-6-18,89,80,68,72,72,63,93,75,43,30.06,29.98,9,9,15,0.00
2012-6-19,88,81,69,72,68,62,93,68,46,30.08,30.00,15,5,15,0.00
2012-6-20,88,76,70,77,71,66,97,85,66,30.06,29.96,15,3,15,0.38
2012-6-21,90,78,74,76,74,72,97,88,60,30.00,29.87,15,2,15,0.60
2012-6-22,90,79,74,78,74,72,97,88,61,29.93,29.85,20,2,20,1.96
2012-6-23,81,77,73,77,75,72,97,94,82,29.96,29.86,11,2,11,0.16
2012-6-24,78,76,74,77,75,73,98,96,91,29.93,29.68,25,6,25,5.89
2012-6-25,85,79,75,79,75,74,98,89,76,29.72,29.62,29,9,29,1.92
2012-6-26,86,80,76,78,76,74,93,86,75,29.64,29.57,33,8,33,0.07
2012-6-27,86,78,73,77,73,71,97,85,69,30.02,29.62,15,2,15,0.15
2012-6-28,89,80,70,73,68,63,94,71,49,30.10,30.00,10,1,10,0.00
2012-6-29,90,79,69,73,70,68,94,75,52,30.07,29.94,7,1,7,0.00
2012-6-30,90,80,72,74,71,63,96,74,41,30.02,29.93,10,1,10,0.00
2012-7-1,92,82,73,77,74,71,97,77,54,30.09,29.98,8,1,8,0.00
2012-7-2,93,83,76,77,74,70,96,78,50,30.10,30.00,12,1,12,0.00
2012-7-3,92,83,76,77,74,70,91,74,52,30.08,29.97,8,1,8,0.00
2012-7-4,91,79,74,77,74,70,95,84,54,30.09,30.01,8,0,8,0.08
2012-7-5,91,81,72,77,73,67,97,77,57,30.08,29.97,11,1,11,0.00
2012-7-6,92,82,74,76,74,71,95,77,52,30.07,29.99,11,1,11,0.00
2012-7-7,95,83,74,77,73,68,93,74,44,30.09,30.02,10,1,10,0.00
2012-7-8,94,83,75,78,74,70,92,75,48,30.11,30.00,10,1,10,0.01
2012-7-9,93,82,76,80,75,69,96,79,55,30.06,29.96,11,1,11,0.00
2012-7-10,93,79,72,77,73,68,97,83,49,30.07,29.95,26,1,26,1.36
2012-7-11,91,76,71,77,73,70,98,91,57,30.06,29.97,17,1,17,0.98
2012-7-12,89,78,72,77,74,72,99,86,60,30.04,29.94,8,1,8,0.03
2012-7-13,84,77,75,76,74,73,97,91,75,30.05,29.98,10,2,10,0.02
2012-7-14,90,81,74,76,74,73,97,79,57,30.10,30.00,4,2,18,0.01
2012-7-15,90,78,74,76,74,73,98,88,57,30.12,30.04,4,1,15,0.64
2012-7-16,83,77,72,77,74,72,98,92,76,30.09,29.96,2,1,9,0.13
2012-7-17,86,78,74,77,74,72,97,90,70,30.04,29.96,13,2,13,0.16
2012-7-18,85,76,73,78,74,71,98,92,76,30.13,29.99,11,1,11,0.33
2012-7-19,92,82,74,80,76,73,98,82,58,30.17,30.09,11,1,11,0.00
2012-7-20,94,83,76,78,76,70,97,80,48,30.13,30.03,8,1,8,0.00
2012-7-21,95,81,72,78,74,69,97,82,48,30.12,30.01,20,2,20,1.08
2012-7-22,92,79,73,80,74,70,97,86,59,30.17,30.03,21,1,21,0.00
2012-7-23,88,78,74,81,75,71,97,90,67,30.16,30.10,16,2,16,0.30
2012-7-24,91,82,73,79,76,72,97,81,64,30.14,30.03,13,2,13,0.52
2012-7-25,92,85,76,78,76,74,96,76,59,30.04,29.98,16,2,16,0.00
2012-7-26,92,83,76,78,76,74,96,79,60,30.04,29.97,12,2,12,0.00
2012-7-27,92,83,76,79,76,74,98,79,58,30.09,29.99,8,1,8,0.00
2012-7-28,92,86,75,79,76,73,96,72,59,30.11,30.02,12,1,12,0.00
2012-7-29,93,84,76,78,75,72,95,77,57,30.08,29.99,11,1,11,0.00
2012-7-30,91,81,76,79,75,71,93,82,52,30.05,29.99,15,1,15,0.03
2012-7-31,92,80,74,78,75,72,97,86,57,30.05,29.98,18,1,18,0.31
2012-8-1,88,79,75,79,76,72,99,90,70,30.02,29.93,13,1,13,0.85
2012-8-2,91,82,76,80,76,74,97,82,61,30.01,29.92,9,1,9,0.00
2012-8-3,94,79,73,78,74,69,97,85,47,30.05,29.93,14,1,14,0.02
2012-8-4,91,80,72,77,74,70,97,84,55,30.06,29.96,15,1,15,0.37
2012-8-5,92,79,75,80,76,73,98,89,61,30.10,30.00,12,1,12,0.16
2012-8-6,92,79,73,79,75,70,97,88,58,30.10,29.97,26,1,26,2.22
2012-8-7,90,81,73,79,76,72,98,86,59,30.05,29.97,9,1,9,0.00
2012-8-8,94,83,75,79,76,73,96,80,54,30.06,29.97,11,1,11,0.00
2012-8-9,96,83,75,77,74,71,93,76,48,30.04,29.91,9,1,9,0.01
2012-8-10,92,79,74,79,75,71,96,88,63,30.00,29.91,13,1,13,0.54
2012-8-11,90,80,74,79,75,71,97,85,58,30.03,29.92,14,1,14,0.04
2012-8-12,90,78,74,80,75,71,97,89,64,30.06,29.97,18,1,18,1.64
2012-8-13,89,80,75,80,76,74,98,89,69,30.08,30.00,10,1,10,0.13
2012-8-14,92,81,75,79,75,72,98,84,55,30.05,29.97,14,1,14,0.01
2012-8-15,92,81,73,79,74,71,97,80,60,30.05,29.96,7,1,10,0.00
2012-8-16,94,83,76,81,77,72,95,84,57,30.08,29.98,9,1,9,0.21
2012-8-17,88,80,75,80,77,72,97,89,75,30.05,29.94,8,0,8,0.12
2012-8-18,82,77,72,78,75,71,98,93,79,30.05,29.90,23,1,23,1.44
2012-8-19,92,82,75,80,76,72,98,84,60,30.00,29.91,15,2,15,0.02
2012-8-20,93,83,74,80,76,73,97,81,55,30.05,29.89,16,3,16,0.78
2012-8-21,93,78,72,80,74,71,97,90,60,30.10,29.95,22,2,22,0.86
2012-8-22,86,75,72,78,73,71,98,94,71,30.10,30.00,17,2,17,0.62
2012-8-23,88,78,72,77,73,71,98,84,61,30.12,30.02,10,1,10,0.00
2012-8-24,91,81,74,77,73,70,97,80,55,30.07,29.94,11,2,12,0.00
2012-8-25,91,78,73,78,74,71,97,86,60,30.04,29.95,16,2,16,0.05
2012-8-26,84,78,75,78,75,72,96,92,81,30.01,29.83,18,3,18,0.36
2012-8-27,84,78,75,81,77,74,97,95,86,29.87,29.74,22,4,22,0.89
2012-8-28,91,83,78,81,78,76,95,85,68,29.98,29.86,19,5,19,0.12
2012-8-29,89,82,75,79,76,73,95,84,67,29.99,29.91,23,3,23,0.03
2012-8-30,94,82,74,77,74,71,97,79,51,30.12,29.96,14,1,14,0.00
2012-8-31,91,82,75,79,76,72,98,81,56,30.18,30.08,11,1,11,0.00
2012-9-1,92,83,76,78,74,70,98,78,53,30.17,30.04,11,1,11,0.00
2012-9-2,90,81,73,76,72,68,97,77,50,30.10,29.98,9,1,9,0.00
2012-9-3,92,81,71,75,72,66,97,76,46,30.07,29.97,8,1,8,0.00
2012-9-4,93,81,71,75,72,66,97,77,45,30.02,29.94,9,1,9,0.00
2012-9-5,92,82,73,76,73,71,97,78,54,30.00,29.92,11,2,11,0.01
2012-9-6,87,77,72,79,74,71,97,89,73,30.04,29.95,15,2,15,0.76
2012-9-7,90,79,72,78,74,71,98,86,61,30.01,29.90,10,1,10,0.25
2012-9-8,90,82,75,78,75,73,96,81,63,29.97,29.87,18,3,18,0.05
2012-9-9,83,79,72,79,76,71,98,91,80,29.97,29.86,12,1,12,0.06
2012-9-10,90,80,74,79,75,72,99,86,59,30.04,29.92,12,1,12,0.07
2012-9-11,90,79,74,76,73,69,96,82,62,30.14,30.01,17,2,17,0.05
2012-9-12,88,78,72,75,71,68,90,79,60,30.13,30.06,19,2,19,0.02
2012-9-13,90,80,73,76,72,70,93,79,56,30.11,30.01,14,2,14,0.02
2012-9-14,90,80,74,78,74,71,95,82,62,30.08,29.97,14,2,14,0.00
2012-9-15,88,79,73,76,73,72,96,83,61,30.08,29.99,15,2,15,0.00
2012-9-16,88,78,73,77,73,70,98,88,58,30.06,29.97,13,1,13,0.00
2012-9-17,90,80,72,77,74,72,98,83,58,30.03,29.89,13,2,13,0.01
2012-9-18,81,76,74,78,74,72,97,94,88,29.95,29.88,19,2,19,0.00
2012-9-19,88,80,75,78,75,73,96,85,65,30.05,29.91,11,1,11,0.00
2012-9-20,85,78,72,78,75,70,98,89,71,30.04,29.94,9,0,10,0.00
2012-9-21,86,77,72,78,74,70,99,89,68,30.03,29.91,17,1,17,0.01
2012-9-22,72,72,72,70,70,70,96,96,96,30.02,30.00,5,1,6,0.00
2012-9-23,89,80,72,77,72,69,98,80,56,30.08,30.00,2,1,10,0.00
2012-9-24,83,77,70,67,62,54,81,62,38,30.12,30.03,13,1,13,0.00
2012-9-25,87,75,67,72,66,61,92,76,43,30.11,30.03,8,1,8,0.00
2012-9-26,90,78,71,75,72,69,98,84,52,30.12,30.03,8,1,8,0.00
2012-9-27,90,79,71,77,73,70,98,83,54,30.13,30.00,10,1,10,0.00
2012-9-28,89,79,73,76,73,71,98,83,58,30.07,29.93,10,1,10,0.00
2012-9-29,89,79,73,77,74,71,98,86,56,30.01,29.85,9,1,9,0.00
2012-9-30,91,80,74,78,74,70,99,83,55,29.92,29.78,11,1,11,0.00
2012-10-1,90,81,75,77,74,72,96,81,58,29.82,29.73,16,3,16,0.00
2012-10-2,85,79,76,78,75,72,96,87,71,30.03,29.80,15,2,15,0.00
2012-10-3,82,76,74,78,74,72,97,94,80,30.16,30.02,7,1,7,0.00
2012-10-4,91,77,71,79,73,69,98,90,57,30.18,30.06,28,1,28,0.00
2012-10-5,88,77,71,79,74,70,99,90,69,30.14,29.95,14,1,14,0.00
2012-10-6,85,77,72,79,74,69,99,91,75,30.00,29.87,14,0,14,0.00
2012-10-7,88,77,71,77,72,69,99,87,63,30.00,29.91,11,1,11,0.00
2012-10-8,84,77,71,77,73,70,98,89,72,30.03,29.94,8,0,8,0.00
2012-10-9,85,76,71,76,73,71,99,90,72,30.06,29.97,7,1,7,0.00
2012-10-10,82,75,69,74,70,66,96,86,63,30.12,30.03,8,1,8,0.00
2012-10-11,84,74,66,71,67,65,97,80,55,30.18,30.09,13,2,13,0.00
2012-10-12,85,78,66,70,65,61,94,65,49,30.20,30.10,13,2,13,0.00
2012-10-13,86,74,67,70,66,63,93,77,54,30.20,30.08,18,2,18,0.00
2012-10-14,88,78,68,72,69,66,95,77,52,30.13,29.99,12,2,12,0.00
2012-10-15,87,77,71,77,72,70,96,84,62,30.00,29.82,10,1,10,0.00
2012-10-16,84,74,68,71,68,63,99,81,60,29.89,29.80,10,1,10,0.00
2012-10-17,79,72,67,72,68,64,95,87,72,29.92,29.81,5,0,5,0.00
2012-10-18,88,76,68,75,70,67,98,84,56,29.91,29.80,9,1,9,0.00
2012-10-19,87,76,67,75,70,66,99,84,55,29.89,29.81,11,1,11,0.00
2012-10-20,82,73,62,73,63,53,96,72,44,29.99,29.86,11,1,11,0.00
2012-10-21,81,68,58,61,56,52,91,68,39,30.08,29.97,13,1,13,0.00
2012-10-22,85,72,63,68,63,59,90,73,47,30.10,29.99,15,2,15,0.00
2012-10-23,84,73,64,70,65,61,93,76,55,30.08,29.96,15,2,15,0.00
2012-10-24,87,76,67,73,68,64,93,78,53,30.03,29.90,16,2,16,0.00
2012-10-25,84,75,71,74,70,68,93,85,66,29.95,29.80,18,2,18,0.00
2012-10-26,85,76,72,72,68,63,93,78,48,29.83,29.65,18,1,18,0.00
2012-10-27,75,72,68,66,64,60,84,76,69,29.73,29.61,20,4,20,0.00
2012-10-28,73,69,62,66,61,54,89,77,61,29.83,29.71,19,3,19,0.00
2012-10-29,66,60,54,56,49,45,80,67,49,29.91,29.79,20,3,20,0.00
2012-10-30,67,58,46,51,46,41,89,66,40,29.97,29.85,24,2,24,0.00
2012-10-31,71,62,53,56,51,47,92,71,48,30.08,29.97,12,1,12,0.00
2012-11-1,78,66,58,66,61,56,98,85,55,30.05,29.96,10,0,10,0.00
2012-11-2,74,67,55,62,57,53,99,73,48,30.11,30.03,6,0,6,0.00
2012-11-3,81,74,56,69,62,40,98,68,54,30.15,30.05,7,0,7,0.00
2012-11-4,82,74,64,68,62,50,99,69,42,30.13,30.00,9,1,9,0.00
2012-11-5,80,70,64,69,62,44,99,77,46,30.02,29.92,9,1,9,0.00
2012-11-6,76,65,57,67,61,55,98,86,59,29.95,29.83,15,1,15,0.00
2012-11-7,67,59,55,57,52,49,94,78,58,30.04,29.87,16,2,16,0.00
2012-11-8,55,49,48,50,45,43,86,85,81,30.19,30.01,3,0,5,0.00
2012-11-9,73,58,48,58,46,44,85,68,38,30.28,30.17,8,1,8,0.00
2012-11-10,77,63,51,57,52,46,89,70,45,30.33,30.22,13,2,13,0.00
2012-11-11,81,67,56,65,59,54,95,78,51,30.30,30.21,15,2,15,0.00
2012-11-12,82,70,61,69,64,60,97,81,56,30.25,30.14,12,1,12,0.00
2012-11-13,80,70,64,68,64,61,97,83,54,30.19,30.09,7,0,7,0.00
2012-11-14,74,68,63,68,65,62,98,91,76,30.20,30.10,13,1,13,0.00
2012-11-15,69,66,61,65,64,59,96,93,84,30.17,30.08,7,0,10,0.00
2012-11-16,67,62,58,60,58,56,95,86,74,30.19,30.10,12,1,12,0.00
2012-11-17,76,65,58,66,60,56,94,84,63,30.17,30.07,15,2,15,0.00
2012-11-18,72,63,56,62,59,54,93,85,67,30.21,30.12,14,2,14,0.00
2012-11-19,67,58,52,60,55,51,98,89,74,30.20,30.08,11,1,11,0.00
2012-11-20,74,64,57,62,58,54,97,82,60,30.11,29.98,11,1,11,0.00
2012-11-21,73,62,54,58,55,50,98,80,46,30.11,30.00,11,1,11,0.00
2012-11-22,72,58,48,53,46,38,97,66,33,30.20,30.09,13,1,17,0.01
2012-11-23,71,56,42,49,43,38,93,66,35,30.24,30.11,12,1,12,0.00
2012-11-24,72,58,48,62,51,47,97,80,46,30.12,30.02,12,1,12,0.00
2012-11-25,69,54,41,47,41,33,93,64,28,30.20,30.10,7,0,7,0.00
2012-11-26,78,60,43,59,50,40,91,72,46,30.24,30.12,9,1,9,0.00
2012-11-27,79,66,56,66,61,55,98,84,58,30.20,30.09,12,1,12,0.00
2012-11-28,74,64,58,64,60,54,98,86,65,30.28,30.12,13,1,13,0.00
2012-11-29,78,64,52,62,56,51,95,77,52,30.29,30.19,14,2,14,0.00
2012-11-30,78,65,56,60,56,53,95,74,49,30.27,30.16,11,2,11,0.00
2012-12-1,78,65,54,64,58,53,97,80,51,30.26,30.17,14,1,14,0.00
2012-12-2,81,68,60,65,60,55,97,78,42,30.29,30.18,13,1,13,0.00
2012-12-3,79,69,62,68,62,58,95,80,53,30.29,30.18,11,1,11,0.00
2012-12-4,80,67,57,62,57,52,97,74,39,30.30,30.18,12,1,12,0.00
2012-12-5,78,67,56,65,59,54,94,77,51,30.20,30.03,9,1,9,0.00
2012-12-6,80,68,62,66,62,60,96,82,56,30.06,29.93,11,1,11,0.00
2012-12-7,78,67,62,67,63,60,98,88,65,30.04,29.92,9,1,9,0.00
2012-12-8,82,71,63,70,66,62,99,87,61,30.06,29.97,9,1,9,0.00
2012-12-9,78,69,63,71,66,62,99,91,71,30.10,30.01,6,0,6,0.00
2012-12-10,81,70,59,74,67,59,99,91,76,30.03,29.85,14,2,14,0.08
2012-12-11,80,73,68,75,71,67,99,94,80,30.03,29.89,13,1,13,0.07
2012-12-12,82,73,68,74,70,67,99,92,73,30.08,29.98,12,1,12,0.03
2012-12-13,69,62,55,69,60,52,98,91,80,30.21,30.06,12,2,12,0.01
2012-12-14,64,58,54,59,55,52,96,92,80,30.25,30.12,11,1,12,0.01
2012-12-15,77,63,54,68,60,54,99,89,68,30.17,30.05,8,1,8,0.01
2012-12-16,61,61,60,60,60,59,96,96,95,30.07,30.06,0,0,1,0.00
2012-12-17,80,74,60,69,67,60,98,82,59,29.99,29.89,17,3,17,0.01
2012-12-18,79,69,53,72,64,51,99,85,66,30.05,29.89,14,2,14,0.01
2012-12-19,77,60,49,54,49,40,98,72,28,30.14,30.04,8,1,8,0.00
2012-12-20,82,68,52,70,63,49,98,84,60,30.09,29.93,17,4,17,0.05
2012-12-21,68,55,45,66,44,36,95,66,44,30.23,29.98,20,4,20,0.12
2012-12-22,61,48,38,40,32,15,91,59,17,30.33,30.22,14,1,14,0.01
2012-12-23,65,50,36,44,37,26,95,65,24,30.29,30.15,6,0,6,0.00
2012-12-24,68,58,49,59,51,41,93,78,62,30.16,29.98,12,1,12,0.00
2012-12-25,75,64,54,63,58,53,97,82,62,30.03,29.88,14,2,14,0.00
2012-12-26,77,65,51,71,60,48,95,84,69,30.02,29.82,26,4,26,0.00
2012-12-27,62,50,41,48,44,38,96,81,52,30.14,30.02,9,1,9,0.01
2012-12-28,70,56,41,65,51,40,98,85,52,30.12,29.92,8,1,8,0.01
2012-12-29,73,66,52,71,62,46,98,89,69,30.19,29.87,18,4,18,0.02
2012-12-30,56,47,40,45,38,34,91,73,48,30.39,30.19,18,2,18,0.04
2012-12-31,74,56,42,58,50,40,95,81,55,30.37,30.20,13,1,13,0.04
2013-1-1,77,64,54,61,58,52,98,80,56,30.23,30.05,16,2,16,0.05